Location: Unspecified
(0.0000°N, 0.0000°E)
Time: 18:35:27
(UTC+00:00)

Vanguard 3 - Pass Details

Date: 24 September 2023
Orbit: 507 x 3241 km, 33.3° (Epoch: 29 November)

Event Time Altitude Azimuth Distance (km) Brightness Sun altitude
Rises 09:16:38 0° 229° (SW) 5,400 11.1 51.1°
Reaches altitude 10° 09:22:51 10° 206° (SSW) 4,994 11.1 52.7°
Maximum altitude 09:29:57 14° 178° (S) 5,161 11.4 54.4°
Drops below altitude 10° 09:38:17 10° 150° (SSE) 5,966 11.9 56.5°
Sets 09:47:30 0° 128° (SE) 7,199 12.3 58.8°
